Time,TemperatureF,DewpointF,PressureIn,WindDirection,WindDirectionDegrees,WindSpeedMPH,WindSpeedGustMPH,Humidity,HourlyPrecipIn,Conditions,Clouds,dailyrainin,SoftwareType,DateUTC
2013-03-01 00:01:00,41.9,34.9,30.17,NE,45,0.8,0.8,76,0.00,,,0.00,,2013-02-28 23:01:00,
2013-03-01 00:06:00,42.1,34.9,30.17,East,90,0.4,0.0,76,0.00,,,0.00,,2013-02-28 23:06:00,
2013-03-01 00:11:00,41.9,34.5,30.17,East,90,1.7,2.2,75,0.00,,,0.00,,2013-02-28 23:11:00,
2013-03-01 00:16:00,42.1,34.3,30.17,East,90,1.3,1.3,74,0.00,,,0.00,,2013-02-28 23:16:00,
2013-03-01 00:21:00,41.9,34.2,30.17,East,90,1.7,1.7,74,0.00,,,0.00,,2013-02-28 23:21:00,
2013-03-01 00:26:00,41.7,34.0,30.17,East,90,0.8,2.6,74,0.00,,,0.00,,2013-02-28 23:26:00,
2013-03-01 00:31:00,41.7,34.0,30.17,East,90,0.8,2.2,74,0.00,,,0.00,,2013-02-28 23:31:00,
2013-03-01 00:36:00,41.4,33.3,30.17,East,90,0.4,0.8,73,0.00,,,0.00,,2013-02-28 23:36:00,
2013-03-01 00:44:00,41.5,33.4,30.17,East,90,2.2,4.0,73,0.00,,,0.00,,2013-02-28 23:44:00,
2013-03-01 00:49:00,41.7,33.3,30.17,East,90,1.7,4.0,72,0.00,,,0.00,,2013-02-28 23:49:00,
2013-03-01 00:59:00,41.7,32.5,30.17,East,90,1.7,1.7,70,0.00,,,0.00,,2013-02-28 23:59:00,
2013-03-01 01:04:00,41.5,32.4,30.17,East,90,1.7,1.7,70,0.00,,,0.00,,2013-03-01 00:04:00,
2013-03-01 01:14:00,41.5,32.7,30.15,East,90,1.7,3.1,71,0.00,,,0.00,,2013-03-01 00:14:00,
2013-03-01 01:19:00,41.5,32.7,30.15,East,90,1.3,1.3,71,0.00,,,0.00,,2013-03-01 00:19:00,
2013-03-01 01:24:00,41.5,32.7,30.15,East,90,1.3,1.3,71,0.00,,,0.00,,2013-03-01 00:24:00,
2013-03-01 01:29:00,41.5,32.7,30.15,East,90,1.3,1.3,71,0.00,,,0.00,,2013-03-01 00:29:00,
2013-03-01 01:34:00,41.5,32.7,30.15,East,90,1.3,1.3,71,0.00,,,0.00,,2013-03-01 00:34:00,
2013-03-01 01:39:00,41.5,32.7,30.15,East,90,1.3,1.3,71,0.00,,,0.00,,2013-03-01 00:39:00,
2013-03-01 01:44:00,41.5,32.7,30.15,East,90,1.3,1.3,71,0.00,,,0.00,,2013-03-01 00:44:00,
2013-03-01 01:49:00,41.5,32.7,30.15,East,90,1.3,1.3,71,0.00,,,0.00,,2013-03-01 00:49:00,
2013-03-01 01:54:00,41.5,32.7,30.15,East,90,1.3,1.3,71,0.00,,,0.00,,2013-03-01 00:54:00,
2013-03-01 01:59:00,41.5,32.7,30.15,East,90,1.3,1.3,71,0.00,,,0.00,,2013-03-01 00:59:00,
2013-03-01 02:04:00,41.5,32.7,30.15,East,90,1.3,1.3,71,0.00,,,0.00,,2013-03-01 01:04:00,
2013-03-01 02:09:00,41.5,32.7,30.15,East,90,1.3,1.3,71,0.00,,,0.00,,2013-03-01 01:09:00,
2013-03-01 02:14:00,41.5,32.7,30.15,East,90,1.3,1.3,71,0.00,,,0.00,,2013-03-01 01:14:00,
2013-03-01 02:19:00,41.5,32.7,30.15,East,90,1.3,1.3,71,0.00,,,0.00,,2013-03-01 01:19:00,
2013-03-01 02:24:00,41.5,32.7,30.15,East,90,1.3,1.3,71,0.00,,,0.00,,2013-03-01 01:24:00,
2013-03-01 02:29:00,41.5,32.7,30.15,East,90,1.3,1.3,71,0.00,,,0.00,,2013-03-01 01:29:00,
2013-03-01 02:34:00,41.5,32.7,30.15,East,90,1.3,1.3,71,0.00,,,0.00,,2013-03-01 01:34:00,
2013-03-01 02:39:00,41.5,32.7,30.15,East,90,1.3,1.3,71,0.00,,,0.00,,2013-03-01 01:39:00,
2013-03-01 02:44:00,41.5,32.7,30.15,East,90,1.3,1.3,71,0.00,,,0.00,,2013-03-01 01:44:00,
2013-03-01 02:49:00,41.5,32.7,30.15,East,90,1.3,1.3,71,0.00,,,0.00,,2013-03-01 01:49:00,
2013-03-01 02:54:00,41.5,32.7,30.15,East,90,1.3,1.3,71,0.00,,,0.00,,2013-03-01 01:54:00,
2013-03-01 02:59:00,41.5,32.7,30.15,East,90,1.3,1.3,71,0.00,,,0.00,,2013-03-01 01:59:00,
2013-03-01 03:04:00,41.5,32.7,30.15,East,90,1.3,1.3,71,0.00,,,0.00,,2013-03-01 02:04:00,
2013-03-01 03:09:00,41.5,32.7,30.15,East,90,1.3,1.3,71,0.00,,,0.00,,2013-03-01 02:09:00,
2013-03-01 03:14:00,41.5,32.7,30.15,East,90,1.3,1.3,71,0.00,,,0.00,,2013-03-01 02:14:00,
2013-03-01 03:19:00,41.5,32.7,30.15,East,90,1.3,1.3,71,0.00,,,0.00,,2013-03-01 02:19:00,
2013-03-01 03:24:00,41.5,32.7,30.15,East,90,1.3,1.3,71,0.00,,,0.00,,2013-03-01 02:24:00,
2013-03-01 03:29:00,41.5,32.7,30.15,East,90,1.3,1.3,71,0.00,,,0.00,,2013-03-01 02:29:00,
2013-03-01 03:34:00,41.5,32.7,30.15,East,90,1.3,1.3,71,0.00,,,0.00,,2013-03-01 02:34:00,
2013-03-01 03:39:00,41.5,32.7,30.15,East,90,1.3,1.3,71,0.00,,,0.00,,2013-03-01 02:39:00,
2013-03-01 03:44:00,41.5,32.7,30.15,East,90,1.3,1.3,71,0.00,,,0.00,,2013-03-01 02:44:00,
2013-03-01 03:49:00,41.5,32.7,30.15,East,90,1.3,1.3,71,0.00,,,0.00,,2013-03-01 02:49:00,
2013-03-01 03:54:00,41.5,32.7,30.15,East,90,1.3,1.3,71,0.00,,,0.00,,2013-03-01 02:54:00,
2013-03-01 03:59:00,41.5,32.7,30.15,East,90,1.3,1.3,71,0.00,,,0.00,,2013-03-01 02:59:00,
2013-03-01 04:04:00,41.5,32.7,30.15,East,90,1.3,1.3,71,0.00,,,0.00,,2013-03-01 03:04:00,
2013-03-01 04:09:00,41.5,32.7,30.15,East,90,1.3,1.3,71,0.00,,,0.00,,2013-03-01 03:09:00,
2013-03-01 04:14:00,41.5,32.7,30.15,East,90,1.3,1.3,71,0.00,,,0.00,,2013-03-01 03:14:00,
2013-03-01 04:19:00,41.5,32.7,30.15,East,90,1.3,1.3,71,0.00,,,0.00,,2013-03-01 03:19:00,
2013-03-01 04:25:00,41.5,32.7,30.15,East,90,1.3,1.3,71,0.00,,,0.00,,2013-03-01 03:25:00,
2013-03-01 04:34:00,41.5,32.7,30.15,East,90,1.3,1.3,71,0.00,,,0.00,,2013-03-01 03:34:00,
2013-03-01 04:39:00,41.5,32.7,30.15,East,90,1.3,1.3,71,0.00,,,0.00,,2013-03-01 03:39:00,
2013-03-01 04:44:00,41.5,32.7,30.15,East,90,1.3,1.3,71,0.00,,,0.00,,2013-03-01 03:44:00,
2013-03-01 04:49:00,41.5,32.7,30.15,East,90,1.3,1.3,71,0.00,,,0.00,,2013-03-01 03:49:00,
2013-03-01 04:54:00,41.5,32.7,30.15,East,90,1.3,1.3,71,0.00,,,0.00,,2013-03-01 03:54:00,
2013-03-01 04:59:00,41.5,32.7,30.15,East,90,1.3,1.3,71,0.00,,,0.00,,2013-03-01 03:59:00,
2013-03-01 05:05:00,41.5,32.7,30.15,East,90,1.3,1.3,71,0.00,,,0.00,,2013-03-01 04:05:00,
2013-03-01 05:15:00,41.5,32.7,30.15,East,90,1.3,1.3,71,0.00,,,0.00,,2013-03-01 04:15:00,
2013-03-01 05:20:00,41.5,32.7,30.15,East,90,1.3,1.3,71,0.00,,,0.00,,2013-03-01 04:20:00,
2013-03-01 05:25:00,41.5,32.7,30.15,East,90,1.3,1.3,71,0.00,,,0.00,,2013-03-01 04:25:00,
2013-03-01 05:30:00,41.5,32.7,30.15,East,90,1.3,1.3,71,0.00,,,0.00,,2013-03-01 04:30:00,
2013-03-01 05:35:00,41.5,32.7,30.15,East,90,1.3,1.3,71,0.00,,,0.00,,2013-03-01 04:35:00,
2013-03-01 05:40:00,41.5,32.7,30.15,East,90,1.3,1.3,71,0.00,,,0.00,,2013-03-01 04:40:00,
2013-03-01 05:45:00,41.5,32.7,30.15,East,90,1.3,1.3,71,0.00,,,0.00,,2013-03-01 04:45:00,
2013-03-01 05:50:00,41.5,32.7,30.15,East,90,1.3,1.3,71,0.00,,,0.00,,2013-03-01 04:50:00,
2013-03-01 05:55:00,41.5,32.7,30.15,East,90,1.3,1.3,71,0.00,,,0.00,,2013-03-01 04:55:00,
2013-03-01 06:00:00,41.5,32.7,30.15,East,90,1.3,1.3,71,0.00,,,0.00,,2013-03-01 05:00:00,
2013-03-01 06:05:00,41.5,32.7,30.15,East,90,1.3,1.3,71,0.00,,,0.00,,2013-03-01 05:05:00,
2013-03-01 06:10:00,41.5,32.7,30.15,East,90,1.3,1.3,71,0.00,,,0.00,,2013-03-01 05:10:00,
2013-03-01 06:15:00,41.5,32.7,30.15,East,90,1.3,1.3,71,0.00,,,0.00,,2013-03-01 05:15:00,
2013-03-01 06:20:00,41.5,32.7,30.15,East,90,1.3,1.3,71,0.00,,,0.00,,2013-03-01 05:20:00,
2013-03-01 06:25:00,41.5,32.7,30.15,East,90,1.3,1.3,71,0.00,,,0.00,,2013-03-01 05:25:00,
2013-03-01 06:30:00,41.5,32.7,30.15,East,90,1.3,1.3,71,0.00,,,0.00,,2013-03-01 05:30:00,
2013-03-01 06:35:00,41.5,32.7,30.15,East,90,1.3,1.3,71,0.00,,,0.00,,2013-03-01 05:35:00,
2013-03-01 06:40:00,41.5,32.7,30.15,East,90,1.3,1.3,71,0.00,,,0.00,,2013-03-01 05:40:00,
2013-03-01 06:45:00,41.5,32.7,30.15,East,90,1.3,1.3,71,0.00,,,0.00,,2013-03-01 05:45:00,
2013-03-01 06:50:00,41.5,32.7,30.15,East,90,1.3,1.3,71,0.00,,,0.00,,2013-03-01 05:50:00,
2013-03-01 06:55:00,41.5,32.7,30.15,East,90,1.3,1.3,71,0.00,,,0.00,,2013-03-01 05:55:00,
2013-03-01 07:00:00,41.5,32.7,30.15,East,90,1.3,1.3,71,0.00,,,0.00,,2013-03-01 06:00:00,
2013-03-01 07:05:00,41.5,32.7,30.15,East,90,1.3,1.3,71,0.00,,,0.00,,2013-03-01 06:05:00,
2013-03-01 07:10:00,41.5,32.7,30.15,East,90,1.3,1.3,71,0.00,,,0.00,,2013-03-01 06:10:00,
2013-03-01 07:15:00,41.5,32.7,30.15,East,90,1.3,1.3,71,0.00,,,0.00,,2013-03-01 06:15:00,
2013-03-01 07:20:00,41.5,32.7,30.15,East,90,1.3,1.3,71,0.00,,,0.00,,2013-03-01 06:20:00,
2013-03-01 07:25:00,41.5,32.7,30.15,East,90,1.3,1.3,71,0.00,,,0.00,,2013-03-01 06:25:00,
2013-03-01 07:35:00,41.5,32.7,30.15,East,90,1.3,1.3,71,0.00,,,0.00,,2013-03-01 06:35:00,
2013-03-01 07:40:00,41.5,32.7,30.15,East,90,1.3,1.3,71,0.00,,,0.00,,2013-03-01 06:40:00,
2013-03-01 07:45:00,41.5,32.7,30.15,East,90,1.3,1.3,71,0.00,,,0.00,,2013-03-01 06:45:00,
2013-03-01 07:50:00,41.5,32.7,30.15,East,90,1.3,1.3,71,0.00,,,0.00,,2013-03-01 06:50:00,
2013-03-01 07:55:00,41.5,32.7,30.15,East,90,1.3,1.3,71,0.00,,,0.00,,2013-03-01 06:55:00,
2013-03-01 08:05:00,41.5,32.7,30.15,East,90,1.3,1.3,71,0.00,,,0.00,,2013-03-01 07:05:00,
2013-03-01 08:10:00,41.5,32.7,30.15,East,90,1.3,1.3,71,0.00,,,0.00,,2013-03-01 07:10:00,
2013-03-01 08:15:00,41.5,32.7,30.15,East,90,1.3,1.3,71,0.00,,,0.00,,2013-03-01 07:15:00,
2013-03-01 08:20:00,41.5,32.7,30.15,East,90,1.3,1.3,71,0.00,,,0.00,,2013-03-01 07:20:00,
2013-03-01 08:30:00,41.5,32.7,30.15,East,90,1.3,1.3,71,0.00,,,0.00,,2013-03-01 07:30:00,
2013-03-01 08:35:00,41.5,32.7,30.15,East,90,1.3,1.3,71,0.00,,,0.00,,2013-03-01 07:35:00,
2013-03-01 08:40:00,41.5,32.7,30.15,East,90,1.3,1.3,71,0.00,,,0.00,,2013-03-01 07:40:00,
2013-03-01 08:45:00,41.5,32.7,30.15,East,90,1.3,1.3,71,0.00,,,0.00,,2013-03-01 07:45:00,
2013-03-01 08:50:00,41.5,32.7,30.15,East,90,1.3,1.3,71,0.00,,,0.00,,2013-03-01 07:50:00,
2013-03-01 08:55:00,41.5,32.7,30.15,East,90,1.3,1.3,71,0.00,,,0.00,,2013-03-01 07:55:00,
2013-03-01 09:00:00,41.5,32.7,30.15,East,90,1.3,1.3,71,0.00,,,0.00,,2013-03-01 08:00:00,
2013-03-01 09:05:00,41.5,32.7,30.15,East,90,1.3,1.3,71,0.00,,,0.00,,2013-03-01 08:05:00,
2013-03-01 09:10:00,41.5,32.7,30.15,East,90,1.3,1.3,71,0.00,,,0.00,,2013-03-01 08:10:00,
2013-03-01 09:15:00,41.5,32.7,30.15,East,90,1.3,1.3,71,0.00,,,0.00,,2013-03-01 08:15:00,
2013-03-01 09:22:00,47.7,32.5,30.09,East,90,2.6,3.1,56,0.00,,,0.00,,2013-03-01 08:22:00,
2013-03-01 09:28:00,47.7,32.5,30.09,East,90,2.6,3.1,56,0.00,,,0.00,,2013-03-01 08:28:00,
2013-03-01 09:33:00,47.7,32.5,30.09,East,90,2.6,3.1,56,0.00,,,0.00,,2013-03-01 08:33:00,
2013-03-01 09:38:00,47.7,32.5,30.09,East,90,2.6,3.1,56,0.00,,,0.00,,2013-03-01 08:38:00,
2013-03-01 09:43:00,47.7,32.5,30.09,East,90,2.6,3.1,56,0.00,,,0.00,,2013-03-01 08:43:00,
2013-03-01 09:48:00,47.7,32.5,30.09,East,90,2.6,3.1,56,0.00,,,0.00,,2013-03-01 08:48:00,
2013-03-01 09:53:00,47.7,32.5,30.09,East,90,2.6,3.1,56,0.00,,,0.00,,2013-03-01 08:53:00,
2013-03-01 09:58:00,47.7,32.5,30.09,East,90,2.6,3.1,56,0.00,,,0.00,,2013-03-01 08:58:00,
2013-03-01 10:03:00,47.7,32.5,30.09,East,90,2.6,3.1,56,0.00,,,0.00,,2013-03-01 09:03:00,
2013-03-01 10:08:00,47.7,32.5,30.09,East,90,2.6,3.1,56,0.00,,,0.00,,2013-03-01 09:08:00,
2013-03-01 10:13:00,47.7,32.5,30.09,East,90,2.6,3.1,56,0.00,,,0.00,,2013-03-01 09:13:00,
2013-03-01 10:18:00,47.7,32.5,30.09,East,90,2.6,3.1,56,0.00,,,0.00,,2013-03-01 09:18:00,
2013-03-01 10:23:00,47.7,32.5,30.09,East,90,2.6,3.1,56,0.00,,,0.00,,2013-03-01 09:23:00,
2013-03-01 10:28:00,47.7,32.5,30.09,East,90,2.6,3.1,56,0.00,,,0.00,,2013-03-01 09:28:00,
2013-03-01 10:33:00,47.7,32.5,30.09,East,90,2.6,3.1,56,0.00,,,0.00,,2013-03-01 09:33:00,
2013-03-01 10:38:00,47.7,32.5,30.09,East,90,2.6,3.1,56,0.00,,,0.00,,2013-03-01 09:38:00,
2013-03-01 10:43:00,47.7,32.5,30.09,East,90,2.6,3.1,56,0.00,,,0.00,,2013-03-01 09:43:00,
2013-03-01 10:48:00,47.7,32.5,30.09,East,90,2.6,3.1,56,0.00,,,0.00,,2013-03-01 09:48:00,
2013-03-01 10:53:00,47.7,32.5,30.09,East,90,2.6,3.1,56,0.00,,,0.00,,2013-03-01 09:53:00,
2013-03-01 10:58:00,47.7,32.5,30.09,East,90,2.6,3.1,56,0.00,,,0.00,,2013-03-01 09:58:00,
2013-03-01 11:03:00,47.7,32.5,30.09,East,90,2.6,3.1,56,0.00,,,0.00,,2013-03-01 10:03:00,
2013-03-01 11:08:00,47.7,32.5,30.09,East,90,2.6,3.1,56,0.00,,,0.00,,2013-03-01 10:08:00,
2013-03-01 11:13:00,47.7,32.5,30.09,East,90,2.6,3.1,56,0.00,,,0.00,,2013-03-01 10:13:00,
2013-03-01 11:18:00,47.7,32.5,30.09,East,90,2.6,3.1,56,0.00,,,0.00,,2013-03-01 10:18:00,
2013-03-01 11:23:00,47.7,32.5,30.09,East,90,2.6,3.1,56,0.00,,,0.00,,2013-03-01 10:23:00,
2013-03-01 11:28:00,47.7,32.5,30.09,East,90,2.6,3.1,56,0.00,,,0.00,,2013-03-01 10:28:00,
2013-03-01 11:33:00,47.7,32.5,30.09,East,90,2.6,3.1,56,0.00,,,0.00,,2013-03-01 10:33:00,
2013-03-01 11:38:00,47.7,32.5,30.09,East,90,2.6,3.1,56,0.00,,,0.00,,2013-03-01 10:38:00,
2013-03-01 11:43:00,47.7,32.5,30.09,East,90,2.6,3.1,56,0.00,,,0.00,,2013-03-01 10:43:00,
2013-03-01 11:48:00,47.7,32.5,30.09,East,90,2.6,3.1,56,0.00,,,0.00,,2013-03-01 10:48:00,
2013-03-01 11:53:00,47.7,32.5,30.09,East,90,2.6,3.1,56,0.00,,,0.00,,2013-03-01 10:53:00,
2013-03-01 12:03:00,47.7,32.5,30.09,East,90,2.6,3.1,56,0.00,,,0.00,,2013-03-01 11:03:00,
2013-03-01 12:08:00,47.7,32.5,30.09,East,90,2.6,3.1,56,0.00,,,0.00,,2013-03-01 11:08:00,
2013-03-01 12:13:00,47.7,32.5,30.09,East,90,2.6,3.1,56,0.00,,,0.00,,2013-03-01 11:13:00,
2013-03-01 12:18:00,47.7,32.5,30.09,East,90,2.6,3.1,56,0.00,,,0.00,,2013-03-01 11:18:00,
2013-03-01 12:23:00,47.7,32.5,30.09,East,90,2.6,3.1,56,0.00,,,0.00,,2013-03-01 11:23:00,
2013-03-01 12:28:00,47.7,32.5,30.09,East,90,2.6,3.1,56,0.00,,,0.00,,2013-03-01 11:28:00,
2013-03-01 12:33:00,47.7,32.5,30.09,East,90,2.6,3.1,56,0.00,,,0.00,,2013-03-01 11:33:00,
2013-03-01 12:38:00,47.7,32.5,30.09,East,90,2.6,3.1,56,0.00,,,0.00,,2013-03-01 11:38:00,
2013-03-01 12:43:00,47.7,32.5,30.09,East,90,2.6,3.1,56,0.00,,,0.00,,2013-03-01 11:43:00,
2013-03-01 12:48:00,47.7,32.5,30.09,East,90,2.6,3.1,56,0.00,,,0.00,,2013-03-01 11:48:00,
2013-03-01 12:53:00,47.7,32.5,30.09,East,90,2.6,3.1,56,0.00,,,0.00,,2013-03-01 11:53:00,
2013-03-01 12:58:00,47.7,32.5,30.09,East,90,2.6,3.1,56,0.00,,,0.00,,2013-03-01 11:58:00,
2013-03-01 13:03:00,47.7,32.5,30.09,East,90,2.6,3.1,56,0.00,,,0.00,,2013-03-01 12:03:00,
2013-03-01 13:08:00,47.7,32.5,30.09,East,90,2.6,3.1,56,0.00,,,0.00,,2013-03-01 12:08:00,
2013-03-01 13:15:00,56.1,29.5,30.03,NE,45,3.1,4.9,36,0.00,,,0.36,,2013-03-01 12:15:00,
2013-03-01 13:20:00,56.1,29.5,30.03,NE,45,3.1,4.9,36,0.00,,,0.36,,2013-03-01 12:20:00,
2013-03-01 13:25:00,56.1,29.5,30.03,NE,45,3.1,4.9,36,0.00,,,0.36,,2013-03-01 12:25:00,
2013-03-01 13:30:00,56.1,29.5,30.03,NE,45,3.1,4.9,36,0.00,,,0.36,,2013-03-01 12:30:00,
2013-03-01 13:35:00,56.1,29.5,30.03,NE,45,3.1,4.9,36,0.00,,,0.36,,2013-03-01 12:35:00,
2013-03-01 13:40:00,56.1,29.5,30.03,NE,45,3.1,4.9,36,0.00,,,0.36,,2013-03-01 12:40:00,
2013-03-01 13:45:00,56.1,29.5,30.03,NE,45,3.1,4.9,36,0.00,,,0.36,,2013-03-01 12:45:00,
2013-03-01 13:50:00,56.1,29.5,30.03,NE,45,3.1,4.9,36,0.00,,,0.36,,2013-03-01 12:50:00,
2013-03-01 13:55:00,56.1,29.5,30.03,NE,45,3.1,4.9,36,0.00,,,0.36,,2013-03-01 12:55:00,
2013-03-01 14:03:00,56.3,31.5,30.00,East,90,2.6,4.9,39,0.00,,,0.36,,2013-03-01 13:03:00,
2013-03-01 14:13:00,56.7,31.8,30.00,East,90,1.7,1.7,39,0.00,,,0.36,,2013-03-01 13:13:00,
2013-03-01 14:18:00,56.7,31.8,30.00,East,90,2.2,2.2,39,0.00,,,0.36,,2013-03-01 13:18:00,
2013-03-01 14:23:00,58.1,32.5,30.00,East,90,1.7,3.1,38,0.00,,,0.36,,2013-03-01 13:23:00,
2013-03-01 14:28:00,57.9,32.4,30.00,NE,45,3.1,4.0,38,0.00,,,0.36,,2013-03-01 13:28:00,
2013-03-01 14:33:00,57.9,31.6,30.00,East,90,1.7,4.0,37,0.00,,,0.36,,2013-03-01 13:33:00,
2013-03-01 14:38:00,57.9,31.6,30.00,North,0,0.4,0.8,37,0.00,,,0.36,,2013-03-01 13:38:00,
2013-03-01 14:43:00,58.8,31.8,30.00,ENE,67,2.6,4.9,36,0.00,,,0.36,,2013-03-01 13:43:00,
2013-03-01 14:48:00,59.2,31.5,30.00,ENE,67,2.2,5.3,35,0.00,,,0.36,,2013-03-01 13:48:00,
2013-03-01 14:53:00,59.0,31.3,30.00,ENE,67,2.2,3.1,35,0.00,,,0.36,,2013-03-01 13:53:00,
2013-03-01 14:58:00,58.8,31.1,30.00,East,90,1.3,1.3,35,0.00,,,0.36,,2013-03-01 13:58:00,
2013-03-01 15:03:00,58.8,31.1,30.00,East,90,1.3,1.3,35,0.00,,,0.36,,2013-03-01 14:03:00,
2013-03-01 15:08:00,58.5,30.0,29.97,East,90,2.6,3.1,34,0.00,,,0.36,,2013-03-01 14:08:00,
2013-03-01 15:13:00,56.7,31.3,29.97,East,90,2.6,3.1,38,0.00,,,0.36,,2013-03-01 14:13:00,
2013-03-01 15:18:00,56.7,30.6,29.97,East,90,2.6,3.1,37,0.00,,,0.36,,2013-03-01 14:18:00,
2013-03-01 15:23:00,56.7,30.6,29.97,East,90,1.7,3.1,37,0.00,,,0.36,,2013-03-01 14:23:00,
2013-03-01 15:28:00,56.8,30.7,29.97,East,90,0.8,3.1,37,0.00,,,0.36,,2013-03-01 14:28:00,
2013-03-01 15:35:00,56.8,30.7,29.97,East,90,1.7,4.4,37,0.00,,,0.36,,2013-03-01 14:35:00,
2013-03-01 15:42:00,57.4,29.1,29.97,North,0,1.3,2.2,34,0.00,,,0.36,,2013-03-01 14:42:00,
2013-03-01 15:47:00,57.4,29.1,29.97,NE,45,2.2,2.2,34,0.00,,,0.36,,2013-03-01 14:47:00,
2013-03-01 15:57:00,56.7,30.6,29.97,NE,45,3.1,3.5,37,0.00,,,0.36,,2013-03-01 14:57:00,
2013-03-01 16:03:00,56.5,31.1,29.94,NE,45,0.4,0.0,38,0.00,,,0.36,,2013-03-01 15:03:00,
2013-03-01 16:08:00,56.5,31.1,29.94,NE,45,0.4,0.0,38,0.00,,,0.36,,2013-03-01 15:08:00,
2013-03-01 16:13:00,56.3,30.2,29.94,ENE,67,0.4,8.5,37,0.00,,,0.36,,2013-03-01 15:13:00,
2013-03-01 16:18:00,56.1,30.7,29.94,North,0,0.0,3.1,38,0.00,,,0.36,,2013-03-01 15:18:00,
2013-03-01 16:28:00,55.9,31.3,29.94,NW,315,1.3,0.0,39,0.00,,,0.36,,2013-03-01 15:28:00,
2013-03-01 16:33:00,55.9,31.8,29.94,NE,45,0.4,0.4,40,0.00,,,0.36,,2013-03-01 15:33:00,
2013-03-01 16:38:00,55.9,31.8,29.94,NE,45,0.4,3.1,40,0.00,,,0.36,,2013-03-01 15:38:00,
2013-03-01 16:43:00,55.8,32.4,29.94,East,90,1.3,1.3,41,0.00,,,0.36,,2013-03-01 15:43:00,
2013-03-01 16:53:00,55.8,32.4,29.94,NE,45,2.6,2.6,41,0.00,,,0.36,,2013-03-01 15:53:00,
2013-03-01 16:58:00,55.2,33.1,29.94,NE,45,2.6,4.0,43,0.00,,,0.36,,2013-03-01 15:58:00,
2013-03-01 17:03:00,55.2,33.1,29.94,NE,45,2.6,4.0,43,0.00,,,0.36,,2013-03-01 16:03:00,
2013-03-01 17:08:00,54.9,33.3,29.94,East,90,2.6,4.4,44,0.00,,,0.36,,2013-03-01 16:08:00,
2013-03-01 17:13:00,54.9,33.3,29.94,East,90,1.7,1.7,44,0.00,,,0.36,,2013-03-01 16:13:00,
2013-03-01 17:18:00,54.9,33.3,29.94,East,90,1.7,1.7,44,0.00,,,0.36,,2013-03-01 16:18:00,
2013-03-01 17:23:00,54.9,33.3,29.94,ENE,67,0.8,4.4,44,0.00,,,0.36,,2013-03-01 16:23:00,
2013-03-01 17:28:00,53.8,32.9,29.94,East,90,0.4,2.2,45,0.00,,,0.36,,2013-03-01 16:28:00,
2013-03-01 17:33:00,53.4,33.1,29.94,NW,315,0.4,0.8,46,0.00,,,0.36,,2013-03-01 16:33:00,
2013-03-01 17:38:00,53.2,32.9,29.94,NW,315,0.8,0.8,46,0.00,,,0.36,,2013-03-01 16:38:00,
2013-03-01 17:43:00,53.2,32.9,29.94,NW,315,0.8,0.8,46,0.00,,,0.36,,2013-03-01 16:43:00,
2013-03-01 17:48:00,53.2,32.9,29.94,NW,315,0.4,0.8,46,0.00,,,0.36,,2013-03-01 16:48:00,
2013-03-01 17:53:00,53.2,32.9,29.94,NW,315,1.3,1.3,46,0.00,,,0.36,,2013-03-01 16:53:00,
2013-03-01 17:58:00,52.3,34.2,29.94,NE,45,1.3,3.1,50,0.00,,,0.36,,2013-03-01 16:58:00,
2013-03-01 18:03:00,52.3,34.2,29.94,East,90,1.3,3.5,50,0.00,,,0.36,,2013-03-01 17:03:00,
2013-03-01 18:08:00,52.3,34.2,29.94,NE,45,2.2,2.2,50,0.00,,,0.36,,2013-03-01 17:08:00,
2013-03-01 18:13:00,52.0,34.9,29.94,North,0,1.3,3.5,52,0.00,,,0.36,,2013-03-01 17:13:00,
2013-03-01 18:18:00,51.8,34.7,29.94,East,90,0.8,2.6,52,0.00,,,0.36,,2013-03-01 17:18:00,
2013-03-01 18:23:00,51.8,34.7,29.94,East,90,1.7,2.6,52,0.00,,,0.36,,2013-03-01 17:23:00,
2013-03-01 18:33:00,51.8,35.1,29.91,NE,45,0.0,0.4,53,0.00,,,0.36,,2013-03-01 17:33:00,
2013-03-01 18:38:00,51.6,34.9,29.94,East,90,0.8,2.6,53,0.00,,,0.36,,2013-03-01 17:38:00,
2013-03-01 18:43:00,51.6,35.4,29.94,East,90,1.3,2.2,54,0.00,,,0.36,,2013-03-01 17:43:00,
2013-03-01 18:48:00,51.4,35.2,29.94,NE,45,0.4,0.8,54,0.00,,,0.36,,2013-03-01 17:48:00,
2013-03-01 18:53:00,51.4,35.2,29.94,NE,45,1.3,2.6,54,0.00,,,0.36,,2013-03-01 17:53:00,
2013-03-01 18:58:00,51.4,35.2,29.91,NE,45,0.8,2.6,54,0.00,,,0.36,,2013-03-01 17:58:00,
2013-03-01 19:03:00,51.3,35.6,29.91,East,90,0.0,0.4,55,0.00,,,0.36,,2013-03-01 18:03:00,
2013-03-01 19:08:00,51.1,35.4,29.91,East,90,0.4,0.4,55,0.00,,,0.36,,2013-03-01 18:08:00,
2013-03-01 19:13:00,50.9,35.2,29.91,East,90,0.0,0.0,55,0.00,,,0.36,,2013-03-01 18:13:00,
2013-03-01 19:19:00,51.1,35.4,29.91,East,90,0.8,0.8,55,0.00,,,0.36,,2013-03-01 18:19:00,
2013-03-01 19:24:00,50.9,35.2,29.91,NE,45,0.8,2.2,55,0.00,,,0.36,,2013-03-01 18:24:00,
2013-03-01 19:29:00,51.1,35.4,29.91,East,90,0.8,1.3,55,0.00,,,0.36,,2013-03-01 18:29:00,
2013-03-01 19:34:00,51.1,35.4,29.91,East,90,0.0,0.0,55,0.00,,,0.36,,2013-03-01 18:34:00,
2013-03-01 19:39:00,51.1,35.4,29.91,East,90,0.4,1.3,55,0.00,,,0.36,,2013-03-01 18:39:00,
2013-03-01 19:44:00,50.9,35.2,29.91,East,90,0.4,0.4,55,0.00,,,0.36,,2013-03-01 18:44:00,
2013-03-01 19:49:00,50.7,35.1,29.91,East,90,0.0,0.0,55,0.00,,,0.36,,2013-03-01 18:49:00,
2013-03-01 19:54:00,50.7,35.1,29.91,South,180,0.0,0.0,55,0.00,,,0.36,,2013-03-01 18:54:00,
2013-03-01 19:59:00,50.7,35.4,29.91,North,0,0.0,0.0,56,0.00,,,0.36,,2013-03-01 18:59:00,
2013-03-01 20:04:00,50.7,35.4,29.91,North,0,0.0,0.0,56,0.00,,,0.36,,2013-03-01 19:04:00,
2013-03-01 20:09:00,50.7,35.4,29.91,East,90,0.8,0.8,56,0.00,,,0.36,,2013-03-01 19:09:00,
2013-03-01 20:14:00,50.7,35.4,29.91,East,90,0.8,0.8,56,0.00,,,0.36,,2013-03-01 19:14:00,
2013-03-01 20:19:00,50.7,35.4,29.91,SE,135,0.8,3.5,56,0.00,,,0.36,,2013-03-01 19:19:00,
2013-03-01 20:24:00,50.5,35.2,29.91,East,90,0.4,1.3,56,0.00,,,0.36,,2013-03-01 19:24:00,
2013-03-01 20:29:00,50.4,34.7,29.91,NE,45,0.8,1.7,55,0.00,,,0.36,,2013-03-01 19:29:00,
2013-03-01 20:34:00,50.4,34.7,29.91,East,90,0.8,1.7,55,0.00,,,0.36,,2013-03-01 19:34:00,
2013-03-01 20:39:00,50.4,34.7,29.91,ESE,112,0.8,4.0,55,0.00,,,0.36,,2013-03-01 19:39:00,
2013-03-01 20:44:00,50.2,34.5,29.91,East,90,1.7,1.7,55,0.00,,,0.36,,2013-03-01 19:44:00,
2013-03-01 20:49:00,50.4,34.7,29.91,East,90,1.3,3.5,55,0.00,,,0.36,,2013-03-01 19:49:00,
2013-03-01 20:54:00,50.2,34.5,29.91,ENE,67,1.3,2.2,55,0.00,,,0.36,,2013-03-01 19:54:00,
2013-03-01 20:59:00,50.2,34.5,29.91,East,90,1.3,2.2,55,0.00,,,0.36,,2013-03-01 19:59:00,
2013-03-01 21:04:00,50.2,34.2,29.91,East,90,1.3,3.5,54,0.00,,,0.36,,2013-03-01 20:04:00,
2013-03-01 21:09:00,50.2,34.2,29.91,NE,45,0.0,0.4,54,0.00,,,0.36,,2013-03-01 20:09:00,
2013-03-01 21:14:00,50.0,34.9,29.91,East,90,0.0,0.4,56,0.00,,,0.36,,2013-03-01 20:14:00,
2013-03-01 21:19:00,49.8,35.1,29.91,East,90,0.4,0.0,57,0.00,,,0.36,,2013-03-01 20:19:00,
2013-03-01 21:24:00,49.8,35.1,29.91,East,90,0.4,0.0,57,0.00,,,0.36,,2013-03-01 20:24:00,
2013-03-01 21:29:00,49.8,35.1,29.91,East,90,0.8,1.3,57,0.00,,,0.36,,2013-03-01 20:29:00,
2013-03-01 21:34:00,49.8,35.1,29.91,East,90,0.4,1.7,57,0.00,,,0.36,,2013-03-01 20:34:00,
2013-03-01 21:39:00,49.8,35.1,29.91,East,90,0.4,1.3,57,0.00,,,0.36,,2013-03-01 20:39:00,
2013-03-01 21:44:00,49.8,35.1,29.91,East,90,1.7,1.7,57,0.00,,,0.36,,2013-03-01 20:44:00,
2013-03-01 21:49:00,49.8,35.1,29.91,East,90,1.7,2.6,57,0.00,,,0.36,,2013-03-01 20:49:00,
2013-03-01 21:59:00,50.0,34.9,29.91,East,90,2.2,4.0,56,0.00,,,0.36,,2013-03-01 20:59:00,
2013-03-01 22:04:00,49.5,34.3,29.91,NE,45,1.7,1.7,56,0.00,,,0.36,,2013-03-01 21:04:00,
2013-03-01 22:09:00,49.8,34.7,29.91,NE,45,1.7,1.7,56,0.00,,,0.36,,2013-03-01 21:09:00,
2013-03-01 22:14:00,49.8,34.7,29.91,ENE,67,2.6,4.0,56,0.00,,,0.36,,2013-03-01 21:14:00,
2013-03-01 22:19:00,49.8,35.1,29.91,East,90,2.2,4.0,57,0.00,,,0.36,,2013-03-01 21:19:00,
2013-03-01 22:24:00,49.6,34.9,29.91,East,90,0.4,0.0,57,0.00,,,0.36,,2013-03-01 21:24:00,
2013-03-01 22:29:00,49.6,34.9,29.91,East,90,0.8,1.3,57,0.00,,,0.36,,2013-03-01 21:29:00,
2013-03-01 22:34:00,49.6,35.4,29.91,East,90,1.3,2.2,58,0.00,,,0.36,,2013-03-01 21:34:00,
2013-03-01 22:39:00,49.6,35.4,29.88,East,90,1.3,2.2,58,0.00,,,0.36,,2013-03-01 21:39:00,
2013-03-01 22:44:00,49.5,35.6,29.88,East,90,0.8,2.2,59,0.00,,,0.36,,2013-03-01 21:44:00,
2013-03-01 22:49:00,49.1,35.8,29.91,East,90,0.8,1.7,60,0.00,,,0.36,,2013-03-01 21:49:00,
2013-03-01 22:54:00,49.1,35.8,29.91,East,90,1.3,2.2,60,0.00,,,0.36,,2013-03-01 21:54:00,
2013-03-01 23:04:00,48.9,36.0,29.91,East,90,1.3,3.1,61,0.00,,,0.36,,2013-03-01 22:04:00,
2013-03-01 23:09:00,48.9,36.0,29.91,East,90,0.4,0.0,61,0.00,,,0.36,,2013-03-01 22:09:00,
2013-03-01 23:14:00,48.7,35.8,29.91,East,90,0.4,1.7,61,0.00,,,0.36,,2013-03-01 22:14:00,
2013-03-01 23:19:00,48.7,35.8,29.91,East,90,1.3,4.9,61,0.00,,,0.36,,2013-03-01 22:19:00,
2013-03-01 23:24:00,48.7,35.8,29.91,East,90,0.8,1.3,61,0.00,,,0.36,,2013-03-01 22:24:00,
2013-03-01 23:29:00,48.7,35.8,29.91,East,90,1.3,1.3,61,0.00,,,0.36,,2013-03-01 22:29:00,
2013-03-01 23:34:00,48.7,35.8,29.91,East,90,1.7,3.1,61,0.00,,,0.36,,2013-03-01 22:34:00,
2013-03-01 23:39:00,48.7,35.4,29.88,East,90,1.3,4.9,60,0.00,,,0.36,,2013-03-01 22:39:00,
2013-03-01 23:44:00,48.9,35.6,29.88,East,90,2.2,3.5,60,0.00,,,0.36,,2013-03-01 22:44:00,
2013-03-01 23:49:00,48.9,35.6,29.91,East,90,1.3,2.6,60,0.00,,,0.36,,2013-03-01 22:49:00,
2013-03-01 23:54:00,48.9,35.6,29.91,North,0,1.3,1.3,60,0.00,,,0.36,,2013-03-01 22:54:00,
2013-03-01 23:59:00,48.9,35.6,29.88,East,90,2.6,4.9,60,0.00,,,0.36,,2013-03-01 22:59:00,